Regional Weather Roundup
Issued by NWS

Home | Current Version | Previous Version | Text Only | Print | Product List | Glossary Off
Versions: 1 2 3 4 5 6 7 8 9 10 11 12 13 14 15 16 17 18 19 20 21 22 23 24 25 26 27 28 29 30 31 32 33 34 35 36 37 38 39 40 41 42 43 44 45 46 47 48 49 50

000
ASUS45 KTFX 241110
RWRMT
MONTANA REGIONAL WEATHER ROUNDUP
NATIONAL WEATHER SERVICE GREAT FALLS MT
500 AM MDT TUE MAY 24 2016

NOTE: "FAIR" INDICATES FEW OR NO CLOUDS BELOW 12000 FEET WITH NO
SIGNIFICANT WEATHER AND/OR OBSTRUCTIONS TO VISIBILITY.

MTZ001>007-043-241200-
WEST OF THE DIVIDE

CITY           SKY/WX    TMP DP  RH WIND       PRES   REMARKS
KALISPELL      CLOUDY    44  44 100 CALM      29.91R
MISSOULA       LGT RAIN  43  41  93 CALM      29.92S
BUTTE          LGT RAIN  37  34  89 W3        29.91S
MULLAN PASS    LGT RAIN  35  35 100 NW3       29.88S VSB 1/4
ANACONDA         N/A     37  36  93 S5        29.91S
DEER LODGE       N/A     41  41 100 CALM      29.92S
EUREKA           N/A     43  43 100 CALM      29.92R
HAMILTON         N/A     43  43 100 CALM      29.91S
LIBBY            N/A     46  45  93 CALM      29.91S
PLAINS           N/A     46  42  86 CALM      29.92
$$

MTZ008-052>055-241200-
SOUTHWEST MONTANA

CITY           SKY/WX    TMP DP  RH WIND       PRES   REMARKS
BOZEMAN        LGT RAIN  42  40  92 SE5       29.92F
DILLON         CLOUDY    37  34  89 S5        29.89S
ENNIS          CLOUDY    36  34  93 SE7       29.96S WCI  30
$$

MTZ009-010-012-014-046-048-049-054-241200-
EAST SLOPES AND CENTRAL MONTANA

CITY           SKY/WX    TMP DP  RH WIND       PRES   REMARKS
CUT BANK       CLOUDY    41  38  89 NW8       29.88S
GREAT FALLS    CLOUDY    40  39  97 W6        29.90S
MALMSTROM AFB  MOCLDY    41  40  97 SW6       29.90S
HELENA         CLOUDY    43  41  93 CALM      29.90S
CHOTEAU          N/A     39  37  93 SW5       29.90S
$$

MTZ011-013-016-021-045-047-050-051-241200-
NORTH CENTRAL MONTANA

CITY           SKY/WX    TMP DP  RH WIND       PRES   REMARKS
HAVRE          CLOUDY    47  43  86 W6        29.85R
LEWISTOWN      CLOUDY    42  38  85 W3        29.89S
N BAR RANCH    CLOUDY    41  36  81 W7        29.91R
CHINOOK          N/A     48  43  81 W13       29.84R
$$

MTZ017>020-022>027-061-062-241200-
NORTHEAST MONTANA

CITY           SKY/WX    TMP DP  RH WIND       PRES   REMARKS
GLASGOW        CLOUDY    46  41  82 SW7       29.81R
JORDAN           N/A     41  39  93 W6        29.86R
SIDNEY         PTCLDY    42  39  89 CALM      29.85R
WOLF POINT     MOCLDY    51  44  77 W9        29.82R
PLENTYWOOD       N/A     46  41  81 S3        29.80R
POPLAR           N/A     48  43  81 SW5       29.83R
SCOBEY           N/A     44  32  63 S2        29.78R
$$

MTZ028>42-056>058-241200-
SOUTHCENTRAL AND SOUTHEAST MONTANA

CITY           SKY/WX    TMP DP  RH WIND       PRES   REMARKS
BAKER          CLEAR     39  35  86 CALM      29.89R
BILLINGS       CLOUDY    48  37  65 CALM      29.89S
LIVINGSTON     CLOUDY    42  36  79 CALM      29.90S
MILES CITY     CLOUDY    49  40  71 CALM      29.87S
EKALAKA          N/A     45  35  67 SE3       29.88R
FORSYTH          N/A     46  43  87 CALM      29.87S
$$

REGIONAL REPORTS...DAKOTAS

CITY           SKY/WX    TMP DP  RH WIND       PRES   REMARKS
WILLISTON      CLEAR     45  40  82 SW5       29.83R
MINOT          CLEAR     50  40  68 CALM      29.81R
DICKINSON      CLOUDY    40  35  83 NW9       29.84R
BEACH            N/A     41  41 100 SW9       29.90R
CROSBY           N/A     43  43 100 S7        29.82R
WATFORD CITY     N/A     39  36  87 SW6       29.85R
BISMARCK       CLEAR     47  44  90 NW5       29.82R
GRAND FORKS    LGT RAIN  58  52  80 VRB5G18   29.80F
FARGO          PTCLDY    60  49  66 N10       29.80R
BUFFALO SD       N/A     45  35  68 NW5       29.81R
RAPID CITY     CLEAR     47  35  63 NW10      29.87R
$$

REGIONAL REPORTS...WYOMING/IDAHO/WASHINGTON

CITY           SKY/WX    TMP DP  RH WIND       PRES   REMARKS
GILLETTE       CLEAR     32  30  92 S7        29.90R WCI  26
SHERIDAN       CLEAR     35  30  82 CALM      29.91R
BUFFALO WY     CLEAR     41  31  67 SW5       29.92S
CODY           CLEAR     36  30  80 S5        29.90S
YELLOWSTONE LA   N/A     27  24  89 CALM      29.96R
IDAHO FALLS    CLEAR     36  32  85 N5        29.87S
SALMON         CLOUDY    39  36  87 CALM      29.89R
BOISE          CLEAR     47  39  74 S3        29.84S
SPOKANE        CLOUDY    49  46  90 E3        29.87R
$$

REGIONAL REPORTS...ALBERTA

CITY           SKY/WX    TMP DP  RH WIND       PRES   REMARKS
EDMONTON       CLOUDY    46  43  87 CALM      29.85S
CALGARY        CLOUDY    43  39  87 VRB2      29.86S
LETHBRIDGE     CLOUDY    45  43  93 W3        29.88R
MEDICINE HAT   LGT RAIN  46  45  93 NW12      29.82S
WATERTON GATE    N/A     39  36  87 S6          N/A
CARDSTON         N/A     43  37  81 W6          N/A
MILK RIVER       N/A     43  39  87 NW7         N/A
$$

REGIONAL REPORTS...SASKATCHEWAN

CITY           SKY/WX    TMP DP  RH WIND       PRES   REMARKS
SWIFT CURRENT  HVY RAIN  46  46 100 MISG      29.74R FOG
REGINA         MOCLDY    46  45  93 S7        29.73R
SASKATOON      CLOUDY    50  50 100 NE13      29.78R
CYPRESS HILLS    N/A     41  39  93 NW5         N/A
VAL MARIE        N/A     46  45  93 W9          N/A
ROCKGLEN         N/A     46  45  93 W13         N/A
ASSINIBOIA       N/A     46  46 100 CALM        N/A
$$



USA.gov is the U.S. government's official web portal to all federal, state and local government web resources and services.